Flag for Brunei Weather past 2 weeks in Bandar Seri Begawan, Brunei

Now
75 °F

Partly sunny.


Feels Like: 74 °F
Forecast: 77 / 88 °F
Wind: 2 mph from Southwest

Location: Brunei Airport

Current Time: Oct 1, 2014 at 6:53:16 AM

Latest Report: Oct 1, 2014 at 6:30 AM


Visibility: 6 mi

Pressure: 29.83 "Hg

Humidity: 94%

Dew point: 73 °F

Location of Bandar Seri BegawanLocation

Historic Weather in Bandar Seri Begawan — Graph

°F

Bandar Seri Begawan temperature yesterday

Maximum temperature yesterday: 90 °F (at 1:30 PM)
Minimum temperature yesterday: 77 °F (at 1:30 AM)
Average temperature yesterday: 82 °F

Past Weeks' High & Low Weather Summary

 TemperatureHumidityPressure
High93 °F (Sep 17, 3:30 PM)100% (Sep 17, 6:00 AM)29.95 "Hg (Sep 17, 6:00 AM)
Low73 °F (Sep 26, 6:00 AM)49% (Sep 17, 3:30 PM)29.25 "Hg (Sep 19, 7:30 PM)
Average83 °F82%29.84 "Hg
* Reported Sep 16 6:00 AM — Oct 1 6:00 AM, Bandar Seri Begawan, Weather by CustomWeather, © 2014

Note: Actual official high and low records may vary slightly from our data, if they occured in-between our weather recording intervals... More about our weather records

Advertising

Bandar Seri Begawan weather history for previous 24 hours

 ConditionsComfort  
Time TempWeatherWind HumidityBarometerVisibility
6:00 AM
Oct 1
75 °FPassing clouds.5 mph94%29.83 "Hg6 mi
5:00 AM77 °FPassing clouds.3 mph94%29.83 "Hg6 mi
4:30 AM77 °FPassing clouds.5 mph94%29.83 "Hg6 mi
4:00 AM77 °FPassing clouds.3 mph94%29.83 "Hg6 mi
3:30 AM77 °FPassing clouds.3 mph94%29.83 "Hg6 mi
3:00 AM77 °FPassing clouds.2 mph94%29.83 "Hg6 mi
2:30 AM77 °FPassing clouds.1 mph94%29.83 "Hg6 mi
2:00 AM77 °FPassing clouds.2 mph94%29.83 "Hg6 mi
1:30 AM77 °FPassing clouds.5 mph94%29.83 "Hg6 mi
1:00 AM77 °FPassing clouds.5 mph94%29.86 "Hg6 mi
12:30 AM79 °FPassing clouds.2 mph89%29.86 "Hg6 mi
12:00 AM79 °FPassing clouds.3 mph89%29.86 "Hg6 mi
11:30 PM
Sep 30
79 °FPassing clouds.5 mph89%29.86 "Hg6 mi
11:00 PM79 °FPartly cloudy.5 mph89%29.89 "Hg6 mi
10:30 PM79 °FPartly cloudy.6 mph89%29.86 "Hg6 mi
10:00 PM79 °FPassing clouds.8 mph89%29.89 "Hg6 mi
9:30 PM79 °FPassing clouds.6 mph89%29.89 "Hg6 mi
9:00 PM81 °FPassing clouds.6 mph84%29.89 "Hg6 mi
8:30 PM81 °FPassing clouds.9 mph84%29.86 "Hg6 mi
8:00 PM82 °FPassing clouds.8 mph79%29.86 "Hg6 mi
7:30 PM82 °FPartly cloudy.7 mph84%29.86 "Hg6 mi
7:00 PM84 °FPassing clouds.5 mph79%29.83 "Hg6 mi
6:30 PM84 °FPassing clouds.5 mph79%29.83 "Hg6 mi
6:00 PM84 °FBroken clouds.5 mph79%29.80 "Hg6 mi
5:30 PM84 °FThunderstorms. Broken clouds.7 mph79%29.80 "Hg6 mi
5:00 PM84 °FThunderstorms. Broken clouds.7 mph79%29.77 "Hg6 mi
4:30 PM86 °FThunderstorms. Broken clouds.10 mph75%29.77 "Hg6 mi
4:00 PM86 °FThunderstorms. Partly sunny.9 mph75%29.77 "Hg6 mi
3:30 PM86 °FPartly sunny.9 mph70%29.77 "Hg6 mi
3:00 PM88 °FBroken clouds.13 mph66%29.77 "Hg6 mi
2:30 PM90 °FBroken clouds.14 mph63%29.77 "HgN/A
2:00 PM90 °FBroken clouds.7 mph63%29.80 "HgN/A
1:30 PM90 °FPartly sunny.7 mph63%29.80 "HgN/A
1:00 PM88 °FPartly sunny.7 mph66%29.83 "HgN/A
12:30 PM88 °FPartly sunny.7 mph66%29.83 "HgN/A
12:00 PM88 °FPartly sunny.5 mph62%29.86 "HgN/A
11:30 AM88 °FPartly sunny.3 mph66%29.86 "Hg5 mi
10:30 AM86 °FPartly sunny.7 mph70%29.89 "Hg5 mi
10:00 AM86 °FBroken clouds.6 mph70%29.89 "Hg5 mi
9:30 AM86 °FBroken clouds.7 mph75%29.89 "Hg5 mi
9:00 AM84 °FBroken clouds.5 mph74%29.89 "Hg5 mi
8:30 AM82 °FPartly sunny.3 mph84%29.89 "Hg5 mi
8:00 AM81 °FPartly sunny.3 mph89%29.89 "Hg6 mi
7:30 AM79 °FPartly sunny.2 mph94%29.89 "Hg6 mi
7:00 AM77 °FPartly sunny.3 mph100%29.86 "Hg6 mi
6:30 AM77 °FPartly sunny.3 mph94%29.86 "Hg6 mi
6:00 AM77 °FPassing clouds.2 mph94%29.83 "Hg6 mi
Weather by CustomWeather, © 2014

See weather overviewHow to use our weather pages